Air Resources Laboratory banner image
Air Resources Laboratory web site National Oceanic and Atmospheric Administration (NOAA)

ks roundup


Office: GLD

ASUS43 KGLD 170408
RWRGLD

GOODLAND FORECAST AREA HOURLY WEATHER ROUNDUP
NATIONAL WEATHER SERVICE GOODLAND KS
1000 PM MDT TUE AUG 16 2022

...OFFICIAL OBSERVATIONS...

CITY           SKY/WX    TMP DP  RH WIND       PRES   REMARKS
GOODLAND KS    MOCLDY    63  59  87 E8        30.20R
HILL CITY KS   CLOUDY    65  64  97 NE9       30.16R
IMPERIAL NEB   PTCLDY    61  60  97 E6        30.21R
MCCOOK NEB     CLOUDY    63  62  97 E6        30.18R FOG
AKRON CO       MOCLDY    64  61  90 SE9       30.24R
BURLINGTON CO  MOCLDY    65  61  87 SE6       30.22R
LIMON CO       MOCLDY    66  60  81 CALM      30.27R
$$

...UNOFFICIAL OBSERVATIONS...

CITY           SKY/WX    TMP DP  RH WIND       PRES   REMARKS
COLBY KS       CLOUDY    63  60  90 NE10      30.21R
NORTON KS      CLOUDY    63  61  94 E7        30.20R FOG
SHARON SPRINGS   N/A     66  60  80 CALM        N/A
YUMA CO        FAIR      61  36  39 SE5       30.22S
$$




Office: TOP ASUS43 KTOP 170408 RWRKS WEATHER ROUNDUP FOR KANSAS NATIONAL WEATHER SERVICE GOODLAND KS 1100 PM CDT TUE AUG 16 2022 NOTE: "FAIR" INDICATES FEW OR NO CLOUDS BELOW 12,000 FEET WITH NO SIGNIFICANT WEATHER AND/OR OBSTRUCTIONS TO VISIBILITY. KSZ001>006-013>018-027>032-041>047-170500- NORTHWEST KANSAS CITY SKY/WX TMP DP RH WIND PRES REMARKS GOODLAND MOCLDY 63 59 87 E8 30.20R HAYS CLOUDY 65 63 93 N6 30.13S HILL CITY CLOUDY 65 64 97 NE9 30.16R RUSSELL CLOUDY 66 64 93 NE7 30.11R FOG $$ KSZ061>065-074>080-084>089-170500- SOUTHWEST KANSAS CITY SKY/WX TMP DP RH WIND PRES REMARKS DODGE CITY MOCLDY 67 63 87 NE10 30.13R ELKHART RAIN 65 64 94 NW14 30.25R GARDEN CITY CLOUDY 67 62 84 NE10 30.15R GREAT BEND CLOUDY 68 64 87 NE9 30.11R LIBERAL CLOUDY 72 63 73 NE16 30.14R PRATT CLOUDY 70 66 88 N13 30.09R $$ KSZ066>073-081>083-090>101-170500- SOUTHEAST KANSAS CITY SKY/WX TMP DP RH WIND PRES REMARKS CHANUTE CLOUDY 71 66 84 NE12 30.00S COFFEYVILLE CLOUDY 72 70 93 NE15G22 29.96R HUTCHINSON CLOUDY 68 65 90 NE8 30.06S MEDICINE LODGE N/A 71 65 81 N13 30.05R NEWTON CLOUDY 67 65 93 NE7 30.08R PARSONS CLOUDY 70 67 90 MISG 29.99S WICHITA INTL CLOUDY 69 65 86 NE18 30.04R WICHITA JABRA CLOUDY 68 65 90 NE14 30.04R WICHITA MCCONL CLOUDY 68 66 91 NE13 30.02R WINFIELD CLOUDY 72 67 84 NE15G24 30.02R $$ KSZ007>012-019>026-033>040-048>060-102>105-170500- NORTHEAST KANSAS CITY SKY/WX TMP DP RH WIND PRES REMARKS CONCORDIA CLOUDY 68 65 90 NE6 30.11R EMPORIA CLOUDY 69 65 86 NE8 30.05S LAWRENCE CLOUDY 69 66 90 E5 30.07R MANHATTAN CLOUDY 68 65 90 NE5 30.09R MARYSVILLE CLOUDY 64 64 100 CALM 30.11R OLATHE IND CLOUDY 68 65 90 E6 30.08R SALINA CLOUDY 69 64 84 NE6 30.09R TOPEKA BILLARD CLOUDY 69 67 93 CALM 30.07R TOPEKA FORBES CLOUDY 68 66 93 E3 30.07R $$
Office: EAX ASUS43 KEAX 170405 RWREAX WEATHER ROUNDUP FOR EASTERN KANSAS AND NORTHWEST MISSOURI NATIONAL WEATHER SERVICE KANSAS CITY/PLEASANT HILL MO 1100 PM CDT TUE AUG 16 2022 KSZ040-057-103>105-MOZ028-029-037-043-170500- ...KANSAS CITY METROPOLITAN AREA... CITY SKY/WX TMP DP RH WIND PRES REMARKS K.C. INTL MOCLDY 68 66 93 NE7 30.08S K.C. DOWNTOWN CLOUDY 70 66 87 NE5 30.06S LEES SUMMIT CLOUDY 68 66 93 E6 30.08R OLATHE - IXD CLOUDY 68 65 90 E6 30.08R OLATHE - OJC NOT AVBL LAWRENCE CLOUDY 69 66 90 E5 30.07R $$ MOZ001>008-011>017-020>025-030>033-038>040-044>046-053-054-170500- ...NORTHERN AND CENTRAL MISSOURI... CITY SKY/WX TMP DP RH WIND PRES REMARKS ST. JOSEPH PTCLDY 62 62 100 N5 30.09R MOSBY PTCLDY 66 64 94 CALM 30.08S HARRISONVILLE CLOUDY 68 64 88 E3 30.09R WHITEMAN AFB MOCLDY 68 65 92 E7 30.03R CLINTON CLOUDY 68 68 100 E7 30.05S SEDALIA CLOUDY 68 64 87 E5 30.08S MARSHALL CLOUDY 64 64 100 NE3 30.09S CHILLICOTHE N/A 67 66 97 CALM 30.10R MOBERLY CLEAR 64 61 88 CALM 30.10R KIRKSVILLE CLEAR 65 61 87 NE5 30.11R $$ MOZ041-047>049-056>058-063>065-088>090-097-170500- ...EASTERN AND SOUTHERN MISSOURI... CITY SKY/WX TMP DP RH WIND PRES REMARKS ST. LOUIS INTL CLEAR 71 64 78 CALM 30.06S SPIRIT OF STL CLEAR 66 66 100 CALM 30.05R FOG COLUMBIA CLEAR 67 64 90 CALM 30.08R JEFFERSON CITY PTCLDY 70 65 84 CALM 30.07S MEXICO CLEAR 63 63 100 CALM 30.09R ROLLA MOCLDY 67 66 97 CALM 30.08S LEBANON LGT RAIN 64 63 94 E6 30.08S OSAGE BEACH CLOUDY N/A N/A N/A E5 N/A SPRINGFIELD RAIN 68 67 96 E9 30.04R BRANSON CLOUDY 68 68 100 NE13 30.09R JOPLIN RAIN 70 69 97 E12G21 29.98R WEST PLAINS CLOUDY 67 66 97 E6 30.06F SIKESTON N/A 68 68 100 CALM 30.03R FOG $$ IAZ060-094-KSZ022-034>040-054-083-096-NEZ052-066-093-170500- ...KANSAS...SOUTHEAST NEBRASKA AND IOWA... CITY SKY/WX TMP DP RH WIND PRES REMARKS TOPEKA CLOUDY 69 67 93 CALM 30.07R MANHATTAN CLOUDY 68 65 90 NE5 30.09R EMPORIA CLOUDY 69 65 86 NE8 30.05S OTTAWA CLOUDY 68 68 100 E7 30.04F CHANUTE CLOUDY 71 66 84 NE9 30.00S SALINA CLOUDY 69 64 84 NE6 30.09R WICHITA CLOUDY 69 65 86 NE18 30.04R OMAHA PTCLDY 65 63 93 NW6 30.12R LINCOLN PTCLDY 67 63 87 NW3 30.13R FALLS CITY CLEAR 67 66 97 CALM 30.09R LAMONI CLEAR 66 59 78 NE3 30.11R DES MOINES PTCLDY 71 58 63 E6 30.12S $$ ASUS43 KEAX 170410 RWREAX WEATHER ROUNDUP FOR EASTERN KANSAS AND NORTHWEST MISSOURI NATIONAL WEATHER SERVICE KANSAS CITY/PLEASANT HILL MO 1100 PM CDT TUE AUG 16 2022 KSZ040-057-103>105-MOZ028-029-037-043-170500- ...KANSAS CITY METROPOLITAN AREA... CITY SKY/WX TMP DP RH WIND PRES REMARKS K.C. INTL MOCLDY 68 66 93 NE7 30.08S K.C. DOWNTOWN CLOUDY 70 66 87 NE5 30.06S LEES SUMMIT CLOUDY 68 66 93 E6 30.08R OLATHE - IXD CLOUDY 68 65 90 E6 30.08R OLATHE - OJC NOT AVBL LAWRENCE CLOUDY 69 66 90 E5 30.07R $$ MOZ001>008-011>017-020>025-030>033-038>040-044>046-053-054-170500- ...NORTHERN AND CENTRAL MISSOURI... CITY SKY/WX TMP DP RH WIND PRES REMARKS ST. JOSEPH PTCLDY 62 62 100 N5 30.09R MOSBY PTCLDY 66 64 94 CALM 30.08S HARRISONVILLE CLOUDY 68 64 88 E3 30.09R WHITEMAN AFB MOCLDY 68 65 92 E7 30.03R CLINTON CLOUDY 68 68 100 E7 30.05S SEDALIA CLOUDY 68 64 87 E5 30.08S MARSHALL CLOUDY 64 64 100 NE3 30.09S CHILLICOTHE N/A 67 66 97 CALM 30.10R MOBERLY CLEAR 64 61 88 CALM 30.10R KIRKSVILLE CLEAR 65 61 87 NE5 30.11R $$ MOZ041-047>049-056>058-063>065-088>090-097-170500- ...EASTERN AND SOUTHERN MISSOURI... CITY SKY/WX TMP DP RH WIND PRES REMARKS ST. LOUIS INTL CLEAR 71 64 78 CALM 30.06S SPIRIT OF STL PTCLDY 66 66 100 CALM 30.05R FOG COLUMBIA PTCLDY 67 64 90 CALM 30.08R JEFFERSON CITY PTCLDY 70 65 84 CALM 30.07S MEXICO CLEAR 63 63 100 CALM 30.09R ROLLA MOCLDY 67 66 97 CALM 30.08S LEBANON LGT RAIN 64 63 94 E6 30.08S OSAGE BEACH CLOUDY N/A N/A N/A E5 N/A SPRINGFIELD RAIN 68 67 96 E9 30.04R BRANSON CLOUDY 68 68 100 NE13 30.09R JOPLIN RAIN 70 69 97 E12G21 29.98R WEST PLAINS CLOUDY 67 66 97 E6 30.06F SIKESTON N/A 68 68 100 CALM 30.03R FOG $$ IAZ060-094-KSZ022-034>040-054-083-096-NEZ052-066-093-170500- ...KANSAS...SOUTHEAST NEBRASKA AND IOWA... CITY SKY/WX TMP DP RH WIND PRES REMARKS TOPEKA CLOUDY 69 67 93 CALM 30.07R MANHATTAN CLOUDY 68 65 90 NE5 30.09R EMPORIA CLOUDY 69 65 86 NE8 30.05S OTTAWA CLOUDY 68 68 100 E7 30.04F CHANUTE CLOUDY 71 66 84 NE12 30.00S SALINA CLOUDY 69 64 84 NE6 30.09R WICHITA CLOUDY 69 65 86 NE18 30.04R OMAHA PTCLDY 65 63 93 NW6 30.12R LINCOLN CLEAR 67 63 87 NW3 30.13R FALLS CITY PTCLDY 67 66 97 CALM 30.09R LAMONI CLEAR 66 59 78 NE3 30.11R DES MOINES PTCLDY 71 58 63 E6 30.12S $$ ASUS43 KEAX 170415 RWREAX WEATHER ROUNDUP FOR EASTERN KANSAS AND NORTHWEST MISSOURI NATIONAL WEATHER SERVICE KANSAS CITY/PLEASANT HILL MO 1100 PM CDT TUE AUG 16 2022 KSZ040-057-103>105-MOZ028-029-037-043-170500- ...KANSAS CITY METROPOLITAN AREA... CITY SKY/WX TMP DP RH WIND PRES REMARKS K.C. INTL MOCLDY 68 66 93 NE7 30.08S K.C. DOWNTOWN CLOUDY 70 66 87 NE5 30.06S LEES SUMMIT CLOUDY 68 66 93 E6 30.08R OLATHE - IXD CLOUDY 68 65 90 E6 30.08R OLATHE - OJC NOT AVBL LAWRENCE CLOUDY 69 66 90 E5 30.07R $$ MOZ001>008-011>017-020>025-030>033-038>040-044>046-053-054-170500- ...NORTHERN AND CENTRAL MISSOURI... CITY SKY/WX TMP DP RH WIND PRES REMARKS ST. JOSEPH PTCLDY 62 62 100 N5 30.09R MOSBY CLEAR 64 64 100 CALM 30.08S HARRISONVILLE CLOUDY 68 64 88 E3 30.09R WHITEMAN AFB MOCLDY 68 65 92 E7 30.03R CLINTON CLOUDY 68 68 100 E7 30.05S SEDALIA CLOUDY 68 64 87 E5 30.08S MARSHALL CLOUDY 64 64 100 NE3 30.09S CHILLICOTHE N/A 67 66 97 CALM 30.10R MOBERLY CLEAR 64 61 88 CALM 30.10R KIRKSVILLE CLEAR 65 61 87 NE5 30.11R $$ MOZ041-047>049-056>058-063>065-088>090-097-170500- ...EASTERN AND SOUTHERN MISSOURI... CITY SKY/WX TMP DP RH WIND PRES REMARKS ST. LOUIS INTL CLEAR 71 64 78 CALM 30.06S SPIRIT OF STL PTCLDY 66 66 100 CALM 30.05R FOG COLUMBIA PTCLDY 67 64 90 CALM 30.08R JEFFERSON CITY PTCLDY 70 65 84 CALM 30.07S MEXICO CLEAR 63 63 100 CALM 30.09R ROLLA MOCLDY 67 66 97 CALM 30.08S LEBANON LGT RAIN 64 63 94 E6 30.08S OSAGE BEACH CLOUDY N/A N/A N/A E5 N/A SPRINGFIELD RAIN 68 67 96 E9 30.04R BRANSON CLOUDY 68 68 100 NE13 30.09R JOPLIN HVY RAIN 70 69 97 E13G20 29.98R FOG WEST PLAINS CLOUDY 67 66 97 E6 30.06F SIKESTON N/A 68 68 100 CALM 30.03R FOG $$ IAZ060-094-KSZ022-034>040-054-083-096-NEZ052-066-093-170500- ...KANSAS...SOUTHEAST NEBRASKA AND IOWA... CITY SKY/WX TMP DP RH WIND PRES REMARKS TOPEKA CLOUDY 69 67 93 CALM 30.07R MANHATTAN CLOUDY 68 65 90 NE5 30.09R EMPORIA CLOUDY 69 65 86 NE8 30.05S OTTAWA CLOUDY 68 68 100 E7 30.04F CHANUTE CLOUDY 71 66 84 NE12 30.00S SALINA CLOUDY 69 64 84 NE6 30.09R WICHITA CLOUDY 69 65 86 NE18 30.04R OMAHA PTCLDY 65 63 93 NW6 30.12R LINCOLN CLEAR 67 63 87 NW3 30.13R FALLS CITY PTCLDY 67 66 97 CALM 30.09R LAMONI CLEAR 66 59 78 NE3 30.11R DES MOINES PTCLDY 71 58 63 E6 30.12S $$